Farmington, NM

6:15 AM MDT on October 18, 2019 (GMT -0600)
Four Corners Regional

Weather History for KFMN - September, 2019

Change the Weather History Date:

Saturday, September 21, 2019

  Actual Average Record
Temperature  
Mean Temperature 60 °F -  
Max Temperature 78 °F 78 °F 86 °F (2001)
Min Temperature 41 °F 46 °F 30 °F (1983)
Degree Days  
Heating Degree Days 6    
Growing Degree Days 10 (Base 50)    
Moisture  
Dew Point 22 °F    
Average Humidity 27    
Maximum Humidity 60    
Minimum Humidity 11    
Precipitation  
Precipitation 0.00 in - - ()
Sea Level Pressure  
Sea Level Pressure 29.94 in    
Wind  
Wind Speed 6 mph ()    
Max Wind Speed 10 mph    
Max Gust Speed -    
Visibility 10.0 miles    
Events      
Averages and records for this station are not official NWS values.
T = Trace of Precipitation, MM = Missing Value Source: Averaged Metar Reports

Daily Weather History Graph

Daily Weather History Graph

Search for Another Location

Airport or City:

Astronomy

Sep. 21, 2019 Rise Set
Actual Time 6:59 AM MDT 7:11 PM MDT
Civil Twilight 6:34 AM MDT 7:37 PM MDT
Nautical Twilight 6:03 AM MDT 8:07 PM MDT
Astronomical Twilight 5:33 AM MDT 8:38 PM MDT
Moon No Moon Rise 1:59 PM MDT (9/21)
Length of Visible Light 13h 03m
Length of Day
12h 11m
Waning Gibbous, 54% of the Moon is Illuminated
Sep 21
Waning Gibbous
Sep 21
Last Quarter
Sep 28
New
Oct 5
First Quarter
Oct 13
Full

Hourly Weather History & Observations

Time (MDT) Temp. Windchill Dew Point Humidity Pressure Visibility Wind Dir Wind Speed Gust Speed Precip Events Conditions
12:53 AM 55.0 °F - 19.0 °F 24% 29.88 in 10.0 mi North 3.5 mph - N/A   Clear
1:53 AM 46.9 °F - 19.0 °F 33% 29.91 in 10.0 mi NNE 5.8 mph - N/A   Clear
2:53 AM 46.0 °F 43.1 °F 19.9 °F 35% 29.93 in 10.0 mi NE 5.8 mph - N/A   Clear
3:53 AM 43.0 °F 38.2 °F 19.0 °F 38% 29.95 in 10.0 mi NE 8.1 mph - N/A   Clear
4:53 AM 42.1 °F 38.4 °F 21.0 °F 43% 29.96 in 10.0 mi NNE 5.8 mph - N/A   Clear
5:53 AM 43.0 °F 37.7 °F 25.0 °F 49% 29.98 in 10.0 mi East 9.2 mph - N/A   Clear
6:53 AM 41.0 °F 36.4 °F 28.0 °F 60% 30.00 in 10.0 mi ENE 6.9 mph - N/A   Clear
7:53 AM 48.0 °F - 30.9 °F 52% 30.01 in 10.0 mi East 6.9 mph - N/A   Clear
8:53 AM 53.1 °F - 30.9 °F 43% 30.02 in 10.0 mi ESE 6.9 mph - N/A   Clear
9:53 AM 59.0 °F - 30.0 °F 33% 30.01 in 10.0 mi East 9.2 mph - N/A   Clear
10:53 AM 66.9 °F - 30.0 °F 25% 29.98 in 10.0 mi ESE 5.8 mph - N/A   Clear
11:53 AM 72.0 °F - 27.0 °F 19% 29.96 in 10.0 mi North - - N/A   Clear
12:53 PM 75.0 °F - 23.0 °F 14% 29.94 in 10.0 mi Calm Calm - N/A   Clear
1:53 PM 75.9 °F - 24.1 °F 15% 29.93 in 10.0 mi SSW 10.4 mph - N/A   Clear
2:53 PM 75.9 °F - 23.0 °F 14% 29.91 in 10.0 mi NW 8.1 mph - N/A   Clear
3:53 PM 78.1 °F - 23.0 °F 13% 29.89 in 10.0 mi West 8.1 mph - N/A   Clear
4:53 PM 78.1 °F - 21.9 °F 12% 29.88 in 10.0 mi Calm Calm - N/A   Clear
5:53 PM 75.9 °F - 19.0 °F 12% 29.87 in 10.0 mi West 9.2 mph - N/A   Clear
7:53 PM 69.1 °F - 12.0 °F 11% 29.91 in 10.0 mi WNW 10.4 mph - N/A   Clear
8:53 PM 64.0 °F - 12.0 °F 13% 29.94 in 10.0 mi NW 6.9 mph - N/A   Clear
9:53 PM 59.0 °F - 12.0 °F 16% 29.95 in 10.0 mi North 9.2 mph - N/A   Clear
10:53 PM 55.9 °F - 12.0 °F 18% 29.95 in 10.0 mi WNW 8.1 mph - N/A   Clear
11:53 PM 55.0 °F - 14.0 °F 20% 29.96 in 10.0 mi North 3.5 mph - N/A   Clear